Temperature
14 14 14 14 13 13 13 13 13 13 12 12 12 12 12 12 12 12 12 12 12 12 12 12 12 11 11 11 11 11 11 11 11 11 11 11 11 11 11 11 11 11 11
14 14 13 13 13 13 13 13 13 12 12 12 12 12 12 12 12 12 12 12 12 12 12 11 11 11 11 11 11 11 11 11 11 11 11 11 11 11 11 11 11 11 11
13 13 13 13 13 13 13 12 12 12 12 12 12 12 12 12 12 12 12 11 11 11 11 11 11 11 11 11 11 11 11 11 11 10 11 11 11 10 11 11 11 11 11
13 13 13 13 12 12 12 12 12 12 12 12 12 12 12 11 12 11 11 11 11 11 11 11 11 11 11 11 11 11 11 10 10 10 10 10 10 10 10 10 10 10 10
13 13 13 12 12 12 12 12 12 12 12 12 11 11 11 11 11 11 11 11 11 11 11 11 11 11 11 11 10 10 10 10 10 10 10 10 10 10 10 10 10 10 10
13 13 12 12 12 12 11 11 11 11 11 11 11 11 11 11 11 11 11 11 11 11 11 11 11 10 10 10 10 10 10 10 10 10 10 10 10 10 10 10 10 10 10
12 12 12 12 12 11 11 11 11 11 11 11 11 11 11 11 11 11 11 11 10 10 11 10 10 10 10 10 10 10 10 10 10 10 10 10 10 10 10 9 9 9 9
12 12 12 11 11 11 11 11 11 11 11 11 11 11 11 11 10 10 10 10 10 10 10 10 10 10 10 10 10 10 10 9 9 9 9 9 9 9 9 9 9 9 9
12 11 11 11 11 11 11 11 11 11 10 10 10 10 10 10 10 10 10 10 10 10 10 10 10 10 10 9 9 9 9 9 9 9 9 9 9 9 9 9 9 8 8
11 11 11 11 11 11 11 11 10 10 10 10 10 10 10 10 10 10 10 9 9 9 10 9 9 9 9 9 9 9 9 9 9 9 9 9 9 9 8 8 8 8 8
11 11 11 11 10 10 10 10 10 10 10 10 10 10 9 9 9 9 9 9 9 9 9 9 9 9 9 9 9 9 9 9 9 9 8 9 8 8 8 8 8 8 8
11 11 10 10 10 10 10 10 9 9 9 9 9 9 9 9 9 9 8 8 8 8 8 8 9 9 9 9 8 8 8 8 8 8 8 8 8 8 8 8 8 8 8
10 10 10 10 10 9 9 9 9 9 9 9 9 9 8 8 8 8 8 8 8 8 8 8 8 8 8 8 8 8 8 8 8 8 8 8 8 7 7 7 7 7 7
10 10 10 9 9 9 9 9 9 9 9 8 8 8 8 8 8 7 7 7 7 7 7 7 7 7 7 7 7 7 7 7 7 7 7 7 7 7 7 7 7 7 7
10 9 9 9 9 9 8 8 8 8 8 8 8 7 7 7 7 7 7 7 7 7 7 6 6 7 7 7 7 7 6 6 6 6 6 6 6 6 6 6 6 6 6
9 9 9 8 8 8 8 8 7 7 7 7 7 7 6 6 6 6 6 6 6 6 6 6 6 6 6 6 6 6 6 6 6 6 6 6 6 6 6 6 6 5 5
9 8 8 8 8 8 7 7 7 7 6 6 6 6 6 6 6 6 5 5 5 5 5 5 5 5 5 5 5 5 5 5 5 5 5 5 5 5 5 5 5 5 5
8 8 8 7 7 7 7 6 6 6 6 6 6 5 5 5 5 5 5 5 5 4 4 4 4 4 4 4 4 4 4 4 4 4 4 4 4 4 4 4 4 4 4
7 7 7 7 6 6 6 6 5 5 5 5 5 5 5 5 4 4 4 4 4 4 4 4 4 4 4 4 4 4 4 4 4 4 4 4 4 4 4 4 4 4 3
7 6 6 6 6 6 5 5 5 4 4 4 4 4 4 4 4 4 4 3 3 3 3 3 3 3 3 3 3 3 3 3 3 3 3 3 3 3 3 3 3 3 3
6 6 5 5 5 5 5 4 4 4 4 4 3 3 3 3 3 3 3 3 3 3 3 3 3 3 2 2 2 3 3 3 3 3 3 3 3 3 3 2 2 2 2
5 5 5 5 5 4 4 4 4 3 3 3 3 3 3 2 2 2 2 2 2 2 2 2 2 2 2 2 2 2 2 2 2 2 2 2 2 2 2 2 2 2 2
4 4 4 4 4 4 3 3 3 3 2 2 2 2 2 2 2 2 2 2 2 2 2 2 2 2 2 2 2 2 2 1 1 1 1 1 1 1 1 1 1 1 1
4 3 3 3 3 3 3 2 2 2 2 2 2 2 2 2 1 1 1 1 1 1 1 1 1 1 1 1 1 1 1 1 1 1 1 1 1 1 1 1 1 1 1
3 3 3 2 2 2 2 2 2 2 2 2 2 1 1 1 1 1 1 1 1 1 1 1 1 1 1 1 1 1 1 0 0 0 0 0 0 0 0 0 0 0 0
3 2 2 2 2 1 1 1 1 1 1 1 1 1 1 1 1 1 1 1 1 1 1 1 1 1 1 0 0 0 0 0 0 0 0 -0 -0 -0 -0 -0 -0 -0 -0
Wind_Speed
4 4 4 4 4 3 3 4 4 3 3 3 3 2 2 3 3 3 3 3 4 3 2 3 3 2 1 1 1 1 2 2 3 2 1 1 1 1 1 2 3 4 5
3 3 3 3 3 3 4 4 4 3 3 3 3 2 2 3 3 3 4 4 4 4 4 3 3 2 2 2 2 2 2 3 3 3 1 1 1 2 1 1 2 3 3
3 3 3 3 3 4 4 4 4 4 3 3 3 3 3 3 3 3 3 4 5 4 4 5 4 4 3 3 3 3 2 2 2 2 2 1 1 0 0 0 0 1 2
3 3 3 4 4 5 4 4 4 4 4 4 4 4 4 4 3 3 3 3 4 4 4 4 4 5 5 4 4 4 3 2 2 2 2 1 1 1 1 1 1 1 1
3 3 4 4 3 3 3 3 3 3 4 4 4 4 4 4 4 4 4 4 3 3 3 4 4 5 6 5 4 4 4 3 2 2 2 1 1 1 2 2 2 1 1
3 4 4 3 3 3 4 3 3 3 3 3 4 4 4 4 5 5 4 4 4 3 3 3 3 4 5 6 6 5 6 5 4 4 3 3 4 4 3 2 2 1 2
3 4 3 3 3 4 3 3 3 4 3 4 4 4 5 6 6 5 5 4 4 4 4 3 3 3 3 3 5 5 5 5 6 5 5 5 4 5 5 4 4 4 4
3 3 3 3 3 3 3 4 4 3 3 4 5 5 5 6 6 5 5 3 3 3 4 4 4 3 3 3 2 2 3 4 6 5 6 6 6 5 6 5 5 3 1
2 3 3 3 3 3 4 5 4 3 3 3 3 4 5 6 6 5 4 2 2 3 3 3 3 4 4 3 3 2 3 4 5 6 6 6 6 6 5 3 3 3 2
4 4 3 3 4 4 5 4 3 3 4 3 3 4 4 5 5 4 4 3 3 3 2 3 4 4 4 3 3 3 4 5 3 2 3 5 4 5 7 6 6 4 2
3 1 1 2 3 3 3 3 2 3 2 2 3 3 3 3 4 4 4 3 4 3 3 3 3 5 5 4 4 5 6 4 3 3 2 2 1 2 3 4 5 5 5
0 0 1 1 1 1 1 2 2 2 2 2 2 2 2 3 2 3 3 4 3 3 4 3 4 4 5 5 4 5 5 3 1 1 1 2 2 3 3 3 5 5 5
1 0 1 1 1 1 1 2 1 1 2 2 2 2 2 2 2 2 2 2 3 3 3 3 3 3 3 3 3 3 3 2 2 2 3 3 3 3 2 2 2 2 2
1 1 1 1 1 1 1 1 1 2 2 2 2 2 2 2 1 1 1 1 1 1 2 2 2 2 1 1 2 1 1 2 2 3 3 2 1 1 1 1 1 1 1
1 1 1 1 0 0 1 1 1 2 3 3 3 3 3 3 3 3 2 2 2 2 1 0 1 1 1 1 2 1 1 1 2 2 2 1 1 1 1 1 1 1 2
1 1 1 1 0 0 1 2 3 2 2 2 2 1 2 3 3 2 2 2 2 2 2 1 1 1 2 2 2 2 1 1 2 2 2 2 2 2 2 1 1 2 2
2 2 1 1 0 0 0 1 2 3 4 3 3 2 2 2 2 2 1 1 1 1 1 1 1 2 2 2 2 2 2 2 2 1 2 2 2 2 1 1 1 2 2
1 1 1 1 1 1 1 1 1 1 2 3 3 4 3 3 2 2 1 1 1 0 1 2 2 2 2 2 2 2 2 2 1 1 2 2 2 2 2 2 2 3 3
0 0 0 1 1 1 1 0 1 1 1 1 2 3 3 3 2 2 1 1 1 2 2 2 3 3 3 3 3 2 2 2 2 2 2 2 2 2 2 3 3 4 3
1 2 2 1 0 0 0 0 1 1 1 1 2 2 2 1 1 1 1 0 1 2 2 3 3 3 3 3 3 3 2 3 2 2 2 2 2 2 3 3 3 3 4
1 1 2 1 1 1 1 1 1 1 1 2 2 2 1 0 1 1 1 2 2 3 3 2 3 3 3 3 3 3 3 3 3 3 3 3 3 3 3 3 3 3 4
0 0 0 1 1 1 1 1 1 1 2 2 2 2 2 1 1 2 2 3 3 3 2 2 3 3 3 3 3 3 3 3 3 3 3 3 3 3 3 3 3 3 3
0 0 1 1 1 2 2 1 1 2 2 2 2 1 1 1 2 2 3 3 2 2 2 2 3 3 3 3 3 3 3 4 4 4 3 3 3 3 3 3 4 4 4
0 0 1 1 1 1 1 1 2 2 2 2 2 2 2 2 2 3 3 3 2 2 2 2 3 3 4 3 3 3 3 3 3 3 4 4 4 4 3 4 4 4 5
0 1 1 1 1 1 2 2 2 2 2 2 2 2 2 2 2 3 3 2 2 2 3 3 3 3 4 3 3 3 4 4 4 3 3 3 3 4 4 4 4 4 4
1 1 1 1 1 2 2 2 2 2 2 2 2 2 2 2 3 3 3 3 3 3 3 3 3 4 4 3 4 4 4 4 5 4 3 3 3 3 3 3 4 4 4
Wind_Direction
193 195 200 210 213 212 221 236 238 238 229 229 235 245 254 254 235 217 224 210 204 214 209 199 213 205 195 190 166 170 187 174 210 266 276 313 260 263 274 218 214 215 213
198 196 206 212 206 213 228 232 223 229 226 224 225 235 250 256 238 219 228 216 205 209 213 204 216 203 202 204 189 193 201 190 190 232 265 267 252 254 246 230 220 216 222
186 188 207 215 213 222 231 232 224 226 230 223 217 228 242 246 242 237 229 221 211 212 209 206 213 197 214 215 200 203 208 195 177 190 225 242 275 262 98 271 282 268 241
184 190 210 225 225 224 229 232 229 224 225 227 229 232 237 239 239 234 226 229 222 220 217 210 207 203 214 209 205 206 197 180 169 177 208 228 245 240 161 201 245 265 254
186 202 224 234 232 225 227 235 236 231 233 229 228 240 244 240 237 231 221 218 223 228 227 220 219 217 220 210 208 199 185 183 178 185 204 197 217 191 209 198 208 249 264
198 218 228 225 224 227 231 232 236 243 242 233 228 230 242 251 255 239 224 209 213 218 230 237 235 232 241 227 223 205 189 188 195 193 197 213 224 212 191 184 176 170 255
219 228 225 221 228 235 232 224 231 240 240 240 239 234 242 253 259 248 230 204 206 215 220 232 244 241 234 236 234 222 215 208 195 190 197 217 216 209 185 187 196 201 220
226 235 234 226 233 239 228 228 235 234 234 237 239 238 241 252 255 247 232 205 212 226 224 222 233 253 240 211 205 219 232 230 226 219 221 227 221 206 196 196 197 193 232
241 244 240 228 227 226 229 236 236 231 239 244 243 240 243 254 250 241 221 197 222 243 246 235 232 246 254 209 187 219 251 261 246 232 235 239 232 207 178 152 156 165 227
249 248 240 229 226 230 233 236 237 225 235 244 255 251 247 252 250 233 204 194 220 248 258 255 245 245 258 219 204 214 241 255 255 254 252 253 247 218 192 189 187 189 203
254 256 250 241 236 237 242 244 232 221 229 242 255 269 267 262 257 231 204 195 208 230 248 263 267 262 260 255 228 222 236 238 239 234 248 250 238 220 211 206 197 192 199
214 180 284 279 273 290 247 256 233 202 206 236 251 283 294 288 278 256 229 218 209 212 241 254 264 271 262 259 245 242 243 233 218 208 230 249 240 236 233 227 220 216 217
169 253 288 312 300 274 220 231 241 204 203 223 225 247 284 302 299 292 274 255 250 238 241 251 268 284 277 271 261 252 234 214 203 218 237 248 245 236 226 229 237 239 249
212 259 273 283 314 318 272 229 226 223 224 227 230 237 254 278 278 263 246 246 248 263 276 292 315 317 305 291 299 289 250 219 207 221 240 249 250 222 209 220 227 222 224
229 251 276 265 203 344 319 271 247 239 235 227 226 218 212 241 263 254 222 221 213 208 175 78 14 357 341 330 320 306 290 264 239 241 233 241 232 233 239 208 203 194 210
212 245 240 223 189 195 320 335 335 333 328 315 296 248 246 268 286 264 256 258 240 196 134 135 226 257 264 270 280 293 282 266 258 242 236 230 234 235 241 217 179 200 227
220 228 213 207 214 239 278 289 322 344 354 350 336 323 315 310 296 276 244 245 260 143 120 196 232 245 259 266 265 268 273 269 263 250 240 235 231 233 233 231 215 221 239
240 236 213 207 222 227 232 270 278 290 333 336 332 324 323 320 312 302 285 80 33 88 223 236 244 246 246 252 256 261 270 278 259 250 251 247 234 225 227 233 233 236 238
27 257 222 217 222 240 258 316 331 293 288 318 335 334 327 324 322 328 45 64 211 237 248 255 256 256 254 254 254 253 252 254 254 240 238 245 244 234 238 244 245 245 239
10 360 16 28 14 349 326 326 313 300 292 298 301 300 316 7 15 345 348 318 259 259 253 251 255 256 256 258 256 252 255 252 252 249 244 242 242 239 240 245 250 253 247
13 354 4 1 309 264 264 260 257 262 268 276 280 295 327 348 264 273 269 267 261 261 264 266 267 267 261 258 255 253 251 248 242 244 245 247 246 246 247 244 249 254 256
27 355 322 300 295 281 277 262 255 254 267 279 297 309 313 327 286 277 272 273 272 267 268 268 267 267 259 253 253 246 246 247 245 247 243 242 245 249 252 252 251 256 256
46 338 328 319 316 318 315 297 277 268 272 276 283 290 283 272 279 278 280 286 290 291 290 280 274 274 277 267 251 236 240 244 245 242 243 242 243 246 246 250 255 256 257
303 265 273 288 305 303 286 284 280 281 289 290 287 283 278 278 288 288 283 284 288 288 287 282 280 283 289 291 277 254 244 252 254 242 237 242 242 244 245 248 250 253 257
271 264 260 261 270 281 283 275 271 277 284 285 285 289 293 290 293 297 294 290 290 291 292 289 287 286 287 287 287 273 264 263 263 256 236 235 244 244 248 250 251 254 258
283 274 273 275 274 274 276 277 274 273 274 283 286 285 286 285 283 285 290 291 289 290 292 292 297 300 298 290 287 287 280 271 263 257 240 234 248 252 249 250 253 251 255
Height
1514 1515 1516 1517 1518 1519 1520 1520 1520 1521 1521 1520 1520 1520 1520 1520 1519 1519 1518 1518 1518 1518 1518 1518 1519 1519 1519 1519 1519 1519 1519 1519 1519 1519 1520 1520 1521 1521 1522 1523 1524 1525 1526
1511 1512 1513 1514 1516 1516 1517 1517 1518 1518 1518 1518 1518 1517 1517 1517 1516 1516 1515 1515 1515 1515 1515 1515 1516 1516 1516 1516 1516 1516 1516 1516 1516 1516 1516 1517 1518 1519 1519 1520 1521 1522 1523
1509 1509 1510 1511 1512 1513 1514 1514 1514 1515 1515 1515 1515 1514 1514 1514 1513 1513 1512 1512 1512 1512 1512 1512 1512 1513 1513 1513 1513 1513 1513 1513 1513 1513 1513 1514 1515 1515 1516 1517 1518 1518 1519
1506 1506 1507 1508 1508 1509 1510 1511 1511 1511 1511 1512 1511 1511 1511 1511 1510 1510 1509 1509 1508 1508 1508 1508 1509 1509 1509 1510 1510 1510 1510 1510 1510 1510 1510 1511 1512 1512 1513 1513 1514 1515 1516
1503 1503 1504 1505 1505 1506 1506 1507 1507 1507 1508 1508 1508 1508 1507 1507 1507 1506 1506 1506 1505 1505 1505 1505 1505 1505 1506 1506 1506 1506 1506 1506 1506 1506 1507 1507 1508 1509 1509 1510 1511 1511 1512
1499 1500 1501 1501 1502 1502 1502 1503 1503 1503 1504 1504 1504 1504 1503 1503 1503 1503 1503 1502 1502 1502 1501 1501 1502 1502 1502 1502 1502 1503 1503 1503 1503 1503 1503 1504 1504 1505 1506 1507 1507 1508 1508
1497 1497 1498 1498 1498 1499 1499 1499 1499 1499 1500 1500 1500 1500 1499 1499 1499 1499 1499 1499 1499 1498 1498 1498 1498 1498 1499 1499 1499 1499 1499 1499 1500 1500 1500 1500 1501 1501 1502 1503 1503 1504 1504
1494 1494 1495 1495 1495 1496 1496 1496 1496 1496 1496 1496 1495 1495 1495 1495 1495 1495 1495 1495 1495 1495 1495 1495 1495 1495 1495 1495 1495 1495 1495 1496 1496 1496 1496 1497 1497 1498 1498 1499 1500 1500 1500
1491 1491 1492 1492 1492 1492 1492 1492 1492 1492 1492 1492 1491 1491 1491 1491 1491 1491 1491 1491 1491 1491 1491 1491 1491 1491 1492 1492 1491 1491 1492 1492 1492 1492 1493 1493 1493 1494 1494 1495 1495 1495 1495
1488 1488 1489 1489 1489 1489 1489 1489 1489 1488 1488 1488 1487 1487 1487 1486 1487 1487 1487 1487 1487 1487 1487 1487 1487 1488 1488 1488 1488 1487 1487 1487 1488 1488 1488 1488 1488 1489 1489 1490 1490 1490 1490
1485 1486 1486 1486 1486 1486 1485 1485 1485 1484 1484 1483 1483 1483 1483 1482 1482 1483 1483 1483 1483 1483 1483 1483 1483 1483 1483 1484 1484 1483 1483 1484 1484 1483 1483 1484 1484 1484 1484 1485 1485 1486 1486
1483 1483 1483 1482 1482 1482 1481 1481 1481 1480 1480 1479 1479 1479 1479 1479 1479 1479 1479 1479 1479 1479 1479 1479 1479 1479 1479 1479 1479 1479 1480 1480 1479 1479 1479 1479 1479 1479 1479 1480 1480 1481 1482
1480 1480 1480 1479 1479 1478 1478 1478 1477 1477 1476 1476 1475 1475 1475 1475 1475 1475 1475 1475 1475 1475 1475 1475 1475 1475 1475 1475 1475 1475 1475 1475 1475 1474 1474 1474 1474 1475 1475 1475 1475 1476 1477
1477 1477 1477 1476 1475 1475 1475 1474 1473 1473 1472 1472 1472 1471 1471 1471 1471 1471 1471 1471 1471 1471 1471 1471 1471 1471 1470 1470 1470 1470 1470 1470 1470 1470 1470 1470 1470 1470 1470 1470 1471 1471 1471
1475 1474 1474 1473 1472 1472 1471 1471 1470 1469 1469 1469 1468 1468 1468 1467 1468 1468 1467 1467 1467 1467 1467 1466 1466 1466 1466 1466 1466 1466 1466 1466 1466 1466 1466 1466 1466 1466 1466 1466 1466 1466 1466
1471 1471 1471 1470 1469 1469 1468 1467 1467 1466 1466 1465 1465 1465 1464 1465 1464 1464 1464 1464 1463 1463 1463 1462 1462 1462 1462 1462 1462 1462 1462 1462 1462 1462 1462 1461 1461 1461 1461 1461 1461 1461 1461
1468 1468 1467 1466 1466 1465 1464 1463 1462 1462 1462 1462 1461 1461 1461 1461 1460 1460 1460 1460 1460 1459 1459 1458 1458 1458 1459 1459 1458 1458 1458 1458 1458 1458 1458 1457 1457 1457 1457 1456 1456 1456 1456
1465 1464 1464 1463 1463 1462 1461 1460 1459 1458 1458 1457 1458 1457 1457 1457 1457 1457 1456 1456 1455 1455 1455 1455 1454 1455 1455 1455 1454 1454 1454 1454 1454 1454 1454 1454 1453 1453 1452 1452 1452 1452 1452
1461 1460 1460 1460 1459 1459 1458 1457 1456 1456 1455 1454 1454 1454 1454 1453 1452 1452 1452 1451 1451 1451 1451 1451 1451 1451 1451 1451 1451 1450 1450 1450 1450 1450 1450 1450 1449 1449 1448 1448 1448 1448 1448
1458 1458 1458 1457 1456 1455 1455 1454 1453 1453 1452 1452 1451 1451 1450 1449 1448 1448 1448 1448 1448 1448 1448 1447 1447 1447 1447 1446 1446 1446 1446 1446 1446 1446 1446 1445 1445 1445 1444 1444 1444 1443 1443
1456 1455 1455 1454 1453 1453 1452 1451 1450 1450 1449 1448 1448 1447 1447 1445 1445 1445 1445 1445 1444 1444 1444 1444 1443 1443 1443 1442 1442 1441 1441 1441 1441 1441 1441 1441 1441 1441 1440 1440 1440 1439 1439
1454 1453 1452 1451 1450 1449 1448 1448 1447 1446 1446 1445 1444 1444 1443 1443 1442 1442 1442 1441 1441 1441 1441 1440 1440 1439 1439 1438 1437 1437 1437 1437 1436 1437 1436 1436 1436 1436 1436 1436 1436 1435 1435
1451 1450 1449 1448 1447 1446 1446 1445 1444 1443 1442 1442 1441 1440 1440 1439 1439 1439 1438 1438 1438 1437 1437 1436 1436 1435 1434 1434 1434 1433 1433 1433 1433 1432 1432 1432 1432 1431 1431 1431 1431 1431 1431
1448 1447 1446 1445 1444 1443 1442 1441 1441 1440 1439 1438 1438 1437 1437 1436 1436 1435 1435 1434 1434 1433 1433 1432 1431 1431 1430 1430 1429 1429 1429 1429 1428 1428 1428 1427 1427 1427 1427 1427 1427 1427 1427
1445 1444 1443 1442 1441 1440 1439 1438 1438 1437 1436 1436 1435 1434 1434 1433 1433 1432 1432 1431 1430 1429 1429 1429 1428 1427 1427 1426 1426 1425 1425 1424 1424 1424 1423 1423 1423 1423 1423 1423 1423 1423 1423
1442 1441 1440 1439 1438 1437 1436 1435 1435 1435 1434 1433 1432 1432 1431 1430 1429 1429 1428 1427 1426 1426 1426 1425 1425 1424 1423 1423 1422 1422 1421 1421 1420 1420 1419 1419 1419 1419 1418 1418 1418 1418 1418